Stündliche Wetter Bolshie Ivanischi

Heute, 20 Januar, Mittwoch

Zeit Temperatur Niederschläge Wind Luftdruck Luftfeuchtigkeit
00:00 -16°C° 0 mm 2 m/S 749 mmHg 96%
01:00 -16°C° 0.1 mm 2 m/S 749 mmHg 96%
02:00 -16°C° 0.1 mm 2 m/S 749 mmHg 96%
03:00 -14°C° 0 mm 2 m/S 749 mmHg 99%
04:00 -14°C° 0.1 mm 2 m/S 749 mmHg 98%
05:00 -14°C° 0.1 mm 2 m/S 749 mmHg 97%
06:00 -14°C° 0.1 mm 2 m/S 749 mmHg 95%
07:00 -14°C° 0.1 mm 2 m/S 749 mmHg 95%
08:00 -14°C° 0.1 mm 2 m/S 749 mmHg 95%
09:00 -14°C° 0.1 mm 2 m/S 749 mmHg 95%
10:00 -14°C° 0 mm 3 m/S 750 mmHg 95%
11:00 -14°C° 0 mm 3 m/S 750 mmHg 94%
12:00 -13°C° 0 mm 3 m/S 750 mmHg 94%
13:00 -13°C° 0 mm 3 m/S 750 mmHg 94%
14:00 -13°C° 0 mm 3 m/S 750 mmHg 94%
15:00 -12°C° 0 mm 3 m/S 750 mmHg 94%
16:00 -13°C° 0 mm 3 m/S 750 mmHg 94%
17:00 -14°C° 0 mm 3 m/S 751 mmHg 95%
18:00 -15°C° 0 mm 3 m/S 751 mmHg 95%
19:00 -15°C° 0 mm 3 m/S 751 mmHg 95%
20:00 -15°C° 0 mm 3 m/S 751 mmHg 95%
21:00 -15°C° 0 mm 3 m/S 751 mmHg 95%
22:00 -15°C° 0 mm 2 m/S 751 mmHg 95%
23:00 -16°C° 0 mm 2 m/S 751 mmHg 96%

Morgen, 21 Januar, Donnerstag

Zeit Temperatur Niederschläge Wind Luftdruck Luftfeuchtigkeit
00:00 -17°C° 0 mm 2 m/S 751 mmHg 96%
01:00 -18°C° 0 mm 2 m/S 751 mmHg 95%
02:00 -18°C° 0 mm 2 m/S 751 mmHg 94%
03:00 -19°C° 0 mm 2 m/S 751 mmHg 93%
04:00 -18°C° 0 mm 2 m/S 750 mmHg 93%
05:00 -18°C° 0 mm 2 m/S 750 mmHg 93%
06:00 -18°C° 0 mm 2 m/S 750 mmHg 92%
07:00 -18°C° 0 mm 3 m/S 749 mmHg 91%
08:00 -18°C° 0 mm 3 m/S 749 mmHg 91%
09:00 -17°C° 0 mm 3 m/S 748 mmHg 90%
10:00 -16°C° 0.3 mm 3 m/S 748 mmHg 91%
11:00 -15°C° 0.3 mm 3 m/S 748 mmHg 93%
12:00 -15°C° 0.3 mm 3 m/S 747 mmHg 94%
13:00 -14°C° 0.4 mm 3 m/S 747 mmHg 94%
14:00 -14°C° 0.4 mm 3 m/S 747 mmHg 94%
15:00 -12°C° 0.4 mm 2 m/S 746 mmHg 94%
16:00 -13°C° 0.1 mm 2 m/S 746 mmHg 94%
17:00 -13°C° 0.1 mm 2 m/S 746 mmHg 95%
18:00 -12°C° 0.1 mm 1 m/S 746 mmHg 96%
19:00 -12°C° 0 mm 1 m/S 746 mmHg 95%
20:00 -12°C° 0 mm 1 m/S 746 mmHg 95%
21:00 -12°C° 0 mm 1 m/S 747 mmHg 95%
22:00 -12°C° 0 mm 1 m/S 747 mmHg 95%
23:00 -12°C° 0 mm 1 m/S 747 mmHg 95%

übermorgen, 22 Januar, Freitag

Zeit Temperatur Niederschläge Wind Luftdruck Luftfeuchtigkeit
00:00 -12°C° 0 mm 1 m/S 747 mmHg 95%
01:00 -14°C° 0 mm 2 m/S 747 mmHg 95%
02:00 -13°C° 0 mm 2 m/S 747 mmHg 95%
03:00 -13°C° 0 mm 2 m/S 747 mmHg 95%
04:00 -12°C° 0.1 mm 2 m/S 746 mmHg 95%
05:00 -13°C° 0.1 mm 3 m/S 746 mmHg 95%
06:00 -12°C° 0.1 mm 3 m/S 746 mmHg 95%
07:00 -10°C° 0.4 mm 3 m/S 746 mmHg 95%
08:00 -11°C° 0.4 mm 4 m/S 746 mmHg 95%
09:00 -10°C° 0.4 mm 4 m/S 746 mmHg 95%
10:00 -9°C° 0.2 mm 4 m/S 746 mmHg 95%
11:00 -8°C° 0.2 mm 4 m/S 746 mmHg 95%
12:00 -7°C° 0.2 mm 4 m/S 745 mmHg 95%
13:00 -5°C° 0 mm 3 m/S 745 mmHg 95%
14:00 -4°C° 0 mm 3 m/S 745 mmHg 96%
15:00 -2°C° 0 mm 3 m/S 745 mmHg 97%
16:00 -1°C° 0 mm 3 m/S 745 mmHg 97%
17:00 -1°C° 0 mm 3 m/S 744 mmHg 97%
18:00 0°C° 0 mm 3 m/S 744 mmHg 97%
19:00 -1°C° 0 mm 4 m/S 744 mmHg 96%
20:00 -1°C° 0 mm 4 m/S 744 mmHg 96%
21:00 -1°C° 0 mm 4 m/S 744 mmHg 96%
22:00 -1°C° 0.1 mm 4 m/S 744 mmHg 96%
23:00 -1°C° 0.1 mm 4 m/S 744 mmHg 97%

23 Januar, Samstag

Zeit Temperatur Niederschläge Wind Luftdruck Luftfeuchtigkeit
00:00 -1°C° 0.1 mm 4 m/S 743 mmHg 98%
01:00 -1°C° 0.1 mm 4 m/S 743 mmHg 98%
02:00 -1°C° 0.1 mm 4 m/S 743 mmHg 98%
03:00 -1°C° 0.1 mm 4 m/S 743 mmHg 98%
04:00 0°C° 0 mm 3 m/S 743 mmHg 98%
05:00 0°C° 0 mm 3 m/S 742 mmHg 98%
06:00 0°C° 0 mm 3 m/S 742 mmHg 98%
07:00 0°C° 0 mm 3 m/S 742 mmHg 98%
08:00 0°C° 0 mm 3 m/S 742 mmHg 98%
09:00 0°C° 0 mm 3 m/S 743 mmHg 98%
10:00 -1°C° 0.2 mm 4 m/S 743 mmHg 97%
11:00 -1°C° 0.2 mm 4 m/S 743 mmHg 97%
12:00 -2°C° 0.2 mm 5 m/S 743 mmHg 96%
13:00 -1°C° 0.1 mm 4 m/S 743 mmHg 97%
14:00 -1°C° 0.1 mm 4 m/S 743 mmHg 98%
15:00 -1°C° 0.1 mm 4 m/S 743 mmHg 99%
16:00 -1°C° 0 mm 4 m/S 743 mmHg 99%
17:00 -1°C° 0 mm 4 m/S 743 mmHg 98%
18:00 0°C° 0 mm 3 m/S 743 mmHg 98%
19:00 0°C° 0 mm 3 m/S 743 mmHg 97%
20:00 0°C° 0 mm 3 m/S 744 mmHg 97%
21:00 0°C° 0 mm 3 m/S 744 mmHg 97%
22:00 0°C° 0 mm 3 m/S 744 mmHg 97%
23:00 -1°C° 0 mm 2 m/S 744 mmHg 97%

24 Januar, Sonntag

Zeit Temperatur Niederschläge Wind Luftdruck Luftfeuchtigkeit
00:00 -1°C° 0 mm 2 m/S 744 mmHg 97%
01:00 -1°C° 0 mm 2 m/S 744 mmHg 97%
02:00 +1°C° 0 mm 2 m/S 744 mmHg 97%
03:00 +1°C° 0 mm 2 m/S 744 mmHg 98%
04:00 +1°C° 0 mm 2 m/S 744 mmHg 98%
05:00 +1°C° 0 mm 2 m/S 744 mmHg 98%
06:00 0°C° 0 mm 3 m/S 744 mmHg 98%
07:00 0°C° 0 mm 3 m/S 744 mmHg 98%
08:00 0°C° 0 mm 3 m/S 744 mmHg 98%
09:00 0°C° 0 mm 3 m/S 744 mmHg 98%
10:00 0°C° 0 mm 3 m/S 744 mmHg 99%
11:00 0°C° 0 mm 3 m/S 744 mmHg 99%
12:00 0°C° 0 mm 4 m/S 744 mmHg 100%
13:00 +1°C° 0 mm 3 m/S 744 mmHg 99%
14:00 +1°C° 0 mm 3 m/S 744 mmHg 99%
15:00 0°C° 0 mm 3 m/S 744 mmHg 99%
16:00 0°C° 0 mm 3 m/S 744 mmHg 99%
17:00 +1°C° 0 mm 3 m/S 744 mmHg 99%
18:00 0°C° 0 mm 4 m/S 744 mmHg 99%
19:00 0°C° 0 mm 4 m/S 743 mmHg 99%
20:00 0°C° 0 mm 4 m/S 743 mmHg 98%
21:00 0°C° 0 mm 5 m/S 743 mmHg 98%
22:00 0°C° 0.1 mm 5 m/S 742 mmHg 98%
23:00 0°C° 0.1 mm 5 m/S 742 mmHg 98%

25 Januar, Montag

Zeit Temperatur Niederschläge Wind Luftdruck Luftfeuchtigkeit
00:00 0°C° 0.1 mm 5 m/S 742 mmHg 98%
01:00 0°C° 0 mm 5 m/S 742 mmHg 98%
02:00 -1°C° 0 mm 6 m/S 742 mmHg 98%
03:00 -1°C° 0 mm 6 m/S 741 mmHg 98%
04:00 -1°C° 0 mm 6 m/S 741 mmHg 95%
05:00 -1°C° 0 mm 6 m/S 741 mmHg 93%
06:00 -2°C° 0 mm 6 m/S 741 mmHg 91%
07:00 -2°C° 0 mm 6 m/S 741 mmHg 93%
08:00 -2°C° 0 mm 6 m/S 741 mmHg 95%
09:00 -1°C° 0 mm 6 m/S 741 mmHg 97%
10:00 0°C° 0 mm 5 m/S 741 mmHg 97%
11:00 0°C° 0 mm 5 m/S 741 mmHg 98%
12:00 0°C° 0 mm 5 m/S 742 mmHg 99%
13:00 0°C° 0 mm 5 m/S 742 mmHg 99%
14:00 0°C° 0 mm 5 m/S 742 mmHg 99%
15:00 0°C° 0 mm 4 m/S 742 mmHg 99%
16:00 0°C° 0 mm 4 m/S 743 mmHg 98%
17:00 0°C° 0 mm 4 m/S 743 mmHg 97%
18:00 0°C° 0 mm 4 m/S 743 mmHg 97%
19:00 0°C° 0 mm 4 m/S 744 mmHg 96%
20:00 0°C° 0 mm 4 m/S 744 mmHg 96%
21:00 0°C° 0 mm 4 m/S 744 mmHg 96%
22:00 0°C° 0 mm 4 m/S 744 mmHg 96%
23:00 0°C° 0 mm 3 m/S 744 mmHg 97%
Mehr zeigen

Wir brauchen deine Erlaubnis

Meteoprog und unser Service Anbieter werden persönliche Daten aufbewahren, so wie Cookies, Geräte Bezeichnung oder ähnliche Technologien von deinem Gerät und Prozess, so wie Persönliche Daten Inhalte und Werbungen, genauso wie social Media und den Verkehr zu analysieren.

  • Aufbewahrung und/oder Zugang zu deiner Geräte Informationen.

    Cookies, Geräte Bezeichnung oder andere Informationen, können aufbewahrt oder Zugang zu deinem Gerät erhalten, für den Grund, der oben angegeben wird.

  • Personalisierte Werbung und Inhalte, Messungen, Einblick in das Publikum und Produkt Entwicklung.

    Werbungen und Inhalte können personalisiert werden, basierend auf ein Profil. Mehr Daten können besser personalisierte Werbungen und Inhalte hinzufügen. Werbung und Inhalte können gezeigt und gemessen werden. Einblicke über das Publikum, welche die Werbung gesehen haben und den Inhalt, können abgeleitet werden. So wie Daten können genutzt werden, um es zu verbessern oder die Benutzer Erfahrung zu verbessern das System und die Software.

Wenn du “Ich stimme zu” klickst, erlaubst du uns, die Cookies zu benutzen die Geräte Bezeichnung, den Web oder ähnliche Technologien zu benutzen. Deine Settings, können in deinem Gerät bei deinem Browser geändert werden.

Für den bestimmten Zweck, berechtigten Interessen beruhen darauf, mehr als auf den Inhalt. Du kannst mehr darüber in unseren Privaten und Cookie Politik lesen.